Regional Weather Roundup
Issued by NWS Kansas City/Pleasant Hill, MO

Home | Current Version | Previous Version | Graphics & Text | Print | Product List | Glossary Off
Versions: 1 2 3 4 5 6 7 8 9 10 11 12 13 14 15 16 17 18 19 20 21 22 23 24 25 26 27

000
ASUS43 KEAX 201610
RWREAX

WEATHER ROUNDUP FOR EASTERN KANSAS AND NORTHWEST MISSOURI
NATIONAL WEATHER SERVICE KANSAS CITY/PLEASANT HILL MO
1000 AM CST MON NOV 20 2017

KSZ040-057-103>105-MOZ028-029-037-043-201700-
...KANSAS CITY METROPOLITAN AREA...

CITY           SKY/WX    TMP DP  RH WIND       PRES   REMARKS
K.C. INTL      MOSUNNY   52  29  41 SW20G29   29.88F
K.C. DOWNTOWN  SUNNY     54  29  38 SW21G28   29.90F
LEES SUMMIT    SUNNY     52  31  44 S21       29.92F
OLATHE - IXD   SUNNY     53  29  39 S21G32    29.92F
OLATHE - OJC   SUNNY     50  30  46 SW17G24   29.92F
LAWRENCE       SUNNY     53  29  39 S12G23    29.91F

$$

MOZ001>008-011>017-020>025-030>033-038>040-044>046-053-054-201700-
...NORTHERN AND CENTRAL MISSOURI...

CITY           SKY/WX    TMP DP  RH WIND       PRES   REMARKS
ST. JOSEPH     SUNNY     53  28  38 S20       29.85F
MOSBY          SUNNY     54  28  37 S14G22    29.90F
WARRENSBURG    SUNNY     50  32  50 S14G23    29.96F
WHITEMAN AFB   NOT AVBL
CLINTON        SUNNY     52  30  43 MISG      30.00F
SEDALIA        SUNNY     53  33  46 SW15G32   30.00F
WARSAW         NOT AVBL
CHILLICOTHE      N/A     51  31  46 S14G22    29.90F
KIRKSVILLE     SUNNY     51  31  46 SW18G24   29.90F

$$

MOZ041-047>049-056>058-063>065-088>090-097-201700-
...EASTERN AND SOUTHERN MISSOURI...

CITY           SKY/WX    TMP DP  RH WIND       PRES   REMARKS
ST. LOUIS INTL PTSUNNY   52  25  35 SW14      30.08F
SPIRIT OF STL  MOSUNNY   51  26  37 SW9       30.07F
COLUMBIA       SUNNY     50  30  46 SW17      30.02F
JEFFERSON CITY SUNNY     50  29  44 S9        30.04F
ROLLA          SUNNY     50  28  42 S17G26    30.07F
OSAGE BEACH    SUNNY     53  29  39 SW15G21   30.05F
SPRINGFIELD    SUNNY     50  31  48 S20G26    30.08F
BRANSON        MOSUNNY   52  27  37 SW9G16    30.13F
JOPLIN         SUNNY     53  30  41 S20G33    30.05F
WEST PLAINS    SUNNY     49  24  37 S12       30.16F

$$

IAZ060-094-KSZ022-034>040-054-083-096-NEZ052-066-093-201700-
...KANSAS...SOUTHEAST NEBRASKA AND IOWA...

CITY           SKY/WX    TMP DP  RH WIND       PRES   REMARKS
TOPEKA         SUNNY     52  28  39 S12       29.89F
MANHATTAN      SUNNY     51  25  36 SW22G31   29.85F
EMPORIA        LGT RAIN  51  28  41 S18       29.91F
CHANUTE        SUNNY     52  31  44 S21G29    29.99F
WICHITA        MOSUNNY   51  28  41 S23G33    29.91F
OMAHA          PTSUNNY   48  25  40 SW14      29.73S
LINCOLN        SUNNY     47  24  40 SW18      29.75F
FALLS CITY     SUNNY     51  27  39 S15G25    29.81F
LAMONI         SUNNY     50  29  44 SW22G29   29.80F
DES MOINES     PTSUNNY   50  27  40 SW16G24   29.74F

$$





USA.gov is the U.S. government's official web portal to all federal, state and local government web resources and services.